www.pogodaiklimat.ru

Погода и климат >> Архив погоды >> Таиланд >> Нонгбуалампху


ПОГОДА в Нонгбуалампху

  • Прогноз погоды в Нонгбуалампху
  • Монитор погоды в Нонгбуалампху

АРХИВ ПОГОДЫ в Нонгбуалампху

Время (UTC), дата Ветер
(напр.,м/с)
 
Видим.   Явления Облачность Т
(С)
Тd
(С)
f
(%)
Тe
(С)
Тes
(С)
Комфортность P
(гПа)
Po
(гПа)
Тmin
(С)
Tmax
(С)
R
(мм)
R24
(мм)
S
(см)
03 16.08 З 2 13 км 6/0
[Cs]
+29.6 +25.3 78 +43 +57 опасность
перегрева
1004.1 978.7
06 16.08 З 2 13 км 8/5 600 м
[Sc Ac As Cs]
+33.0 +26.3 68 +49 +57 опасность
перегрева
1001.9 976.7
09 16.08 ЮВ 4 13 км гроза без осадков 10/5 600 м
[Cb cap Ac As Cs]
+26.2 +24.5 90 +37 +38 очень
душно
1001.9 976.2
12 16.08 штиль 0 10 км слаб. дождь {гроза} 10/3 600 м
[Cb cap Ac As Cs]
+25.5 +25.1 98 +37 +37 очень
душно
1002.7 976.9 +33.7 5
15 16.08 штиль 0 10 км слаб. дождь 10/3 300 м
[Frnb Ac As Cs]
+25.5 +25.2 98 +37 +37 очень
душно
1005.0 979.2 2
18 16.08 штиль 0 10 км слаб. дождь 10/3 300 м
[Frnb Ac As Cs]
+25.2 +24.9 98 +36 +36 очень
душно
1004.3 978.5 1
21 16.08 штиль 0 10 км {дождь} 9/3 600 м
[Sc Ac As Cs]
+24.7 +24.4 98 +34 +34 очень
душно
1003.8 977.9 0.0
00 17.08 В 2 10 км слаб. дождь 10/3 300 м
[Frnb Ac As]
+25.0 +25.0 100 +36 +36 очень
душно
1004.8 978.9 +24.7 2
03 17.08 штиль 0 10 км {дождь} 10/3 600 м
[Sc diur, vesp Ac As Cs]
+26.4 +25.4 94 +38 +46 очень
душно
1006.8 981.0 0.2
06 17.08 штиль 0 10 км {дождь} 8/3 600 м
[Sc diur, vesp Ac trans Cs]
+31.8 +25.5 69 +46 +59 опасность
перегрева
1004.3 979.0 0.2
09 17.08 С 2 9000 м гроза, ливневой дождь 10/3 300 м
[Cb cap As op]
+27.8 +25.5 87 +41 +42 опасность
перегрева
1003.5 977.9 1
12 17.08 В 5 9000 м гроза, ливневой дождь 10/4 300 м
[Cb cap As op]
+25.0 +24.7 98 +35 +35 очень
душно
1005.0 979.1 +32.7 10
15 17.08 штиль 0 8000 м слаб. дождь {гроза} 10/4 600 м
[Sc diur, vesp As op]
+24.4 +24.2 99 +34 +34 очень
душно
1007.7 981.7 10
18 17.08 штиль 0 8000 м дымка {гроза, дождь} 10/3 600 м
[Sc diur, vesp Ac As Cs]
+24.8 +24.6 99 +35 +35 очень
душно
1007.7 981.7 0.8
21 17.08 штиль 0 8000 м дымка 10/0
[Ac As Cs]
+24.7 +24.5 99 +35 +35 очень
душно
1007.3 981.3 0.3
00 18.08 штиль 0 9000 м дымка {дождь} 10/3 600 м
[Sc diur, vesp Ac und Cs]
+25.0 +25.0 100 +36 +36 очень
душно
1008.3 982.3 +24.6 23
03 18.08 Ю 6 9000 м дымка 8/3 1000 м
[Sc diur, vesp Ac trans Cs]
+29.0 +25.2 80 +42 +45 опасность
перегрева
1009.0 983.4
06 18.08 З 2 10 км 8/3 600 м
[Sc diur, vesp Ac As Cs]
+31.9 +25.4 69 +46 +56 опасность
перегрева
1006.8 981.4
09 18.08 З 5 12 км 8/3 600 м
[Cu med, cong Ac As Cs]
+31.3 +24.8 68 +44 +46 опасность
перегрева
1004.9 979.6
12 18.08 З 3 10 км 8/3 600 м
[Sc diur, vesp Ac As Cs]
+29.5 +26.7 85 +46 +46 опасность
перегрева
1005.9 980.4 +33.7
15 18.08 штиль 0 9000 м дымка 9/3 600 м
[Sc diur, vesp Ac As Cs]
+28.2 +25.8 87 +42 +42 опасность
перегрева
1008.6 982.9
18 18.08 штиль 0 9000 м дымка 8/0
[Ac As Cs]
+27.2 +26.2 94 +41 +41 опасность
перегрева
1007.1 981.3
21 18.08 штиль 0 9000 м дымка ясно +26.6 +25.9 96 +40 +40 очень
душно
1006.3 980.6
00 19.08 штиль 0 9000 м дымка 10/3 600 м
[Sc diur, vesp Ac As Cs]
+25.8 +25.1 96 +37 +38 очень
душно
1007.0 981.2 +25.6
03 19.08 Ю 2 13 км 4/4 1000 м
[Cu med, cong Ac und]
+30.2 +24.9 73 +43 +53 опасность
перегрева
1006.9 981.4
06 19.08 Ю 3 13 км 6/6 600 м
[Sc]
+32.6 +23.9 60 +44 +51 опасность
перегрева
1004.9 979.7
09 19.08 З 4 13 км 6/0
[Cs]
+32.6 +25.4 66 +47 +51 опасность
перегрева
1002.3 977.1
12 19.08 штиль 0 12 км 6/0
[Cs]
+30.2 +25.7 77 +45 +45 опасность
перегрева
1003.1 977.7 +33.0
15 19.08 штиль 0 10 км 6/0
[Cs]
+27.5 +23.9 81 +38 +38 очень
душно
1005.6 979.9
18 19.08 штиль 0 10 км 6/0
[Cs]
+26.7 +24.2 86 +37 +37 очень
душно
1004.0 978.3
21 19.08 штиль 0 10 км 6/0
[Cs]
+26.0 +24.6 92 +37 +37 очень
душно
1003.3 977.6
00 20.08 штиль 0 11 км слаб. дождь 10/3 600 м
[Sc Ac As Cs]
+25.6 +24.7 95 +36 +37 очень
душно
1004.0 978.2 +25.0 0.0
03 20.08 штиль 0 10 км слаб. дождь 10/3 600 м
[Sc diur, vesp Ac As Cs]
+27.6 +24.6 84 +39 +47 очень
душно
1005.7 980.0 0.0
06 20.08 Ю 2 12 км {дождь} 10/3 600 м
[Sc diur, vesp Ac As Cs]
+29.5 +23.9 72 +41 +48 опасность
перегрева
1004.1 978.7 0.0
09 20.08 штиль 0 12 км 10/3 600 м
[Sc diur, vesp Ac As Cs]
+31.0 +25.8 74 +46 +49 опасность
перегрева
1001.7 976.4
12 20.08 ЮВ 2 11 км 10/3 600 м
[Sc diur, vesp Ac As Cs]
+26.8 +24.0 85 +37 +37 очень
душно
1003.0 977.3 +31.7
15 20.08 штиль 0 9000 м дымка 8/3 1000 м
[Sc diur, vesp Ac As Cs]
+26.4 +24.7 90 +37 +37 очень
душно
1004.6 978.9
18 20.08 штиль 0 9000 м дымка 8/0
[Ac As Cs]
+26.0 +25.0 94 +37 +37 очень
душно
1004.0 978.3
21 20.08 штиль 0 8000 м дымка 4/0
[Cs]
+25.6 +25.0 96 +36 +36 очень
душно
1003.8 978.0
00 21.08 штиль 0 9000 м дымка 10/3 600 м
[Sc diur, vesp Ac und Cs]
+25.8 +24.9 95 +37 +37 очень
душно
1004.6 978.8 +25.5
03 21.08 ЮВ 3 12 км 8/5 600 м
[Sc Ac As Cs]
+28.0 +24.3 80 +39 +44 очень
душно
1005.2 979.5
06 21.08 В 5 13 км 8/6 600 м
[Sc Cs]
+28.4 +24.7 80 +40 +44 очень
душно
1003.8 978.3
09 21.08 В 3 10 км гроза, ливневой дождь 8/3 600 м
[Cb cap Ac As Cs]
+26.5 +25.1 92 +38 +41 очень
душно
1002.9 977.2 0.4
12 21.08 В 3 10 км {гроза} 3/3 1000 м
[Sc]
+27.0 +24.8 88 +39 +39 очень
душно
1003.5 977.8 +30.5 0.4
15 21.08 штиль 0 10 км 3/3 1000 м
[Sc]
+27.0 +24.8 88 +39 +39 очень
душно
1006.2 980.5
18 21.08 штиль 0 10 км слаб. дождь 8/3 600 м
[Sc Ac As Cs]
+26.0 +25.3 96 +38 +38 очень
душно
1005.3 979.5 0.4
21 21.08 штиль 0 10 км {дождь} 8/3 1000 м
[Sc Ac As Cs]
+25.3 +24.9 98 +36 +36 очень
душно
1004.9 979.0 0.0
00 22.08 штиль 0 10 км {дождь} 10/3 600 м
[Frnb Ac As Cs]
+25.5 +24.8 96 +36 +37 очень
душно
1006.3 980.4 +25.0 0.0
03 22.08 штиль 0 9000 м слаб. дождь 10/3 600 м
[Sc Ac und Cs]
+26.4 +25.5 95 +39 +46 очень
душно
1007.4 981.5 0.3
06 22.08 Ю 2 10 км {дождь} 10/3 600 м
[Sc diur, vesp Ac As Cs]
+29.5 +24.5 75 +42 +49 опасность
перегрева
1005.7 980.2 0.0
09 22.08 ЮЗ 2 12 км 10/3 600 м
[Sc diur, vesp Ac As Cs]
+30.4 +23.9 68 +42 +44 опасность
перегрева
1003.9 978.5
12 22.08 СЗ 2 10 км слаб. дождь 10/4 600 м
[Sc diur, vesp As op]
+28.5 +24.9 81 +41 +41 опасность
перегрева
1005.2 979.6 +30.7 0.0
15 22.08 З 2 9000 м дымка {дождь} 10/4 600 м
[Sc diur, vesp Ac und Cs]
+27.0 +25.6 92 +40 +40 очень
душно
1007.9 982.1 1
18 22.08 штиль 0 9000 м дымка {дождь} 10/3 600 м
[Sc diur, vesp Ac und Cs]
+26.2 +25.3 95 +38 +38 очень
душно
1007.2 981.4 1
21 22.08 штиль 0 8000 м дымка 8/0
[Ac As Cs]
+25.4 +24.8 96 +36 +36 очень
душно
1006.7 980.8

 

Местоположение метеостанции Нонгбуалампху (Таиланд): широта 17.23 долгота 102.43 высота над уровнем моря 228 м.

В архиве по умолчанию представлена погода в Нонгбуалампху за последнюю неделю. Архивные данные за месяц целиком и за предыдущие месяцы, начиная с января 2011 года, Вы можете получить, выбрав интересующий диапазон дат из раскрывающегося списка и нажав кнопку "Ввод!".


*Определитесь, кто Вы:
робот инопланетянин человек

Внимание! Время в таблицах - всемирное. Для получения местного времени необходимо прибавить поправку, которая равна 7 ч.

Смотрите также архив погоды в соседних городах и на ближайших метеорологических станциях:

Погода в Удонтхани (Таиланд) (43 км)
Погода в Лоей Агромете (Таиланд) (77 км)
Погода в Нонг Кхай (Таиланд) (77 км)
Погода в Лоэй (Таиланд) (78 км)
Погода во Вьентьяне (Лаос) (85 км)
Погода в Кхонкэне (Таиланд) (99 км)
Погода в Тха Пхра Агромете (Таиланд) (108 км)
Погода в Тхангоне (Лаос) (119 км)
Погода в Косумпхисаи (Таиланд) (130 км)
Погода в Ломсаке (Таиланд) (136 км)

Пояснения к столбцам:

Ветер - указаны скорость ветра в м/с - средняя за 10 мин, порывы в срок и между сроками (в фигурных скобках) и направление, откуда дует ветер: С - северный, СВ - северо-восточный, В - восточный, ЮВ - юго-восточный, Ю - южный, ЮЗ - юго-западный, З - западный, СЗ - северо-западный.
Видимость - горизонтальная дальность видимости в метрах или километрах. При видимости от 1 до 10 км при отсутствии осадков обычно наблюдается дымка, при ухудшении видимости до 1 км и менее - туман. В сухую погоду видимость может ухудшаться дымом, пылью или мглою.
Явления - указаны атмосферные явления, наблюдавшиеся в срок или в последний час перед сроком; фигурными скобками обозначены явления, наблюдавшиеся между сроками (за 1-3 часа до срока); квадратными скобками обозначены град или гололедные отложения с указанием их диаметра в мм.
Облачность - указаны через наклонную черту общая и нижняя облачность в баллах и высота нижней границы облаков в метрах; квадратными скобками обозначены формы облаков: Ci - перистые, Cs - перисто-слоистые, Cc - перисто-кучевые, Ac - высококучевые, As - высокослоистые, Sc - слоисто-кучевые, Ns - слоисто-дождевые, Cu - кучевые, Cb - кучево-дождевые. Подробнее классификацию облаков см. в Атласе облаков (PDF).
T - Температура воздуха - температура, измеренная на высоте 2 м над землей.
Td - Температура точки росы - температура, при понижении до которой содержащийся в воздухе водяной пар достигнет насыщения.
f - Относительная влажность воздуха - влажноcть воздуха, измеренная на высоте 2 м над землей.
Te - Эффективная температура - температура, которую ощущает одетый по сезону человек в тени. Характеристика душности погоды. При расчете учитывается влияние влажности воздуха и скорости ветра на теплоощущения человека.
Tes - Эффективная температура на солнце - температура, которую ощущает человек, с поправкой на солнечный нагрев. Характеристика знойности погоды. Зависит от высоты солнца над горизонтом, облачности и скорости ветра. Ночью, в пасмурную погоду, а также при ветре 12 м/с и более поправка равна нулю.
P - Атмосферное давление - приведенное к уровню моря атмосферное давление.
Po - Атмосферное давление - измеренное на уровне метеостанции атмосферное давление.
Tmin - Минимальная температура - минимум температуры воздуха на высоте 2 м над землей.
Tmax - Максимальная температура - максимум температуры воздуха на высоте 2 м над землей.
R - Количество осадков - Количество выпавших осадков за период времени, мм. При наведении курсора мыши на число - период времени, за который выпало указанное количество осадков.
R24 - Количество осадков - Количество выпавших осадков за 24 часа, мм.
S - Снежный покров - Высота снежного покрова, см. При наведении курсора мыши на число - состояние снежного покрова и степень покрытия местности в баллах.